Terminal Aerodrome Forecast
Issued by NWS Knoxville/Tri Cities, TN

Home | Current Version | Previous Version | Text Only | Print | Product List | Glossary On
Versions: 1 2 3 4 5 6 7 8 9 10 11 12 13 14 15 16 17 18 19 20 21 22 23 24 25 26 27 28 29 30 31
000
FTUS44 KMRX 271728
TAFCHA
TAF
KCHA 271728Z 2718/2818 15003KT P6SM -RA BKN050 OVC100
     FM280300 VRB03KT 4SM -RA BR OVC025
     FM280900 00000KT 2SM RA BR BKN006 OVC012=

USA.gov is the U.S. government's official web portal to all federal, state and local government web resources and services.